timestamp,wind_dir_avg,wind_spd_avg,wind_spd_max_dir,wind_spd_gust,battery_voltage,lat,long
2023-02-22 00:04:00+00:00,220.0,5.89,227.0,6.79,12.41,47.59359,-54.27349
2023-02-22 00:14:00+00:00,142.0,2.54,133.0,3.23,12.33,47.59359,-54.27349
2023-02-22 00:24:00+00:00,143.0,3.22,143.0,3.57,12.33,47.59359,-54.27349
2023-02-22 00:34:00+00:00,164.0,2.74,157.0,3.14,12.33,47.59359,-54.27349
2023-02-22 00:44:00+00:00,245.0,4.88,251.0,7.16,12.33,47.59359,-54.27349
2023-02-22 00:54:00+00:00,147.0,3.31,142.0,3.96,12.33,47.59359,-54.27349
2023-02-22 01:04:00+00:00,233.0,3.27,237.0,4.26,12.33,47.59359,-54.27349
2023-02-22 01:14:00+00:00,92.0,1.29,90.0,2.54,12.33,47.59359,-54.27349
2023-02-22 01:24:00+00:00,150.0,2.17,128.0,3.16,12.33,47.59359,-54.27349
2023-02-22 01:34:00+00:00,117.0,1.96,118.0,2.19,12.33,47.59359,-54.27349
2023-02-22 01:44:00+00:00,98.0,0.9,106.0,1.74,12.33,47.59359,-54.27349
2023-02-22 01:54:00+00:00,180.0,0.22,93.0,2.59,12.33,47.59359,-54.27349
2023-02-22 02:04:00+00:00,330.0,0.32,79.0,2.65,12.33,47.59359,-54.27349
2023-02-22 02:14:00+00:00,165.0,1.23,120.0,2.71,12.25,47.59359,-54.27349
2023-02-22 02:24:00+00:00,220.0,0.24,227.0,0.31,12.25,47.59359,-54.27349
2023-02-22 02:34:00+00:00,233.0,3.86,233.0,4.06,12.25,47.59359,-54.27349
2023-02-22 02:44:00+00:00,145.0,3.51,141.0,3.94,12.25,47.59359,-54.27349
2023-02-22 02:54:00+00:00,147.0,3.05,151.0,3.29,12.25,47.59359,-54.27349
2023-02-22 03:04:00+00:00,227.0,3.93,227.0,4.36,12.25,47.59359,-54.27349
2023-02-22 03:14:00+00:00,224.0,4.33,228.0,5.02,12.25,47.59359,-54.27349
2023-02-22 03:24:00+00:00,229.0,4.49,228.0,5.02,12.25,47.59359,-54.27349
2023-02-22 03:34:00+00:00,230.0,4.14,232.0,4.79,12.25,47.59359,-54.27349
2023-02-22 03:44:00+00:00,248.0,3.27,251.0,3.57,12.25,47.59359,-54.27349
2023-02-22 03:54:00+00:00,284.0,2.9,288.0,3.23,12.25,47.59359,-54.27349
2023-02-22 04:04:00+00:00,282.0,2.26,280.0,2.91,12.25,47.59359,-54.27349
2023-02-22 04:14:00+00:00,48.0,2.38,44.0,2.64,12.25,47.59359,-54.27349
2023-02-22 04:24:00+00:00,48.0,2.89,51.0,3.18,12.25,47.59359,-54.27349
2023-02-22 04:34:00+00:00,37.0,2.8,37.0,3.0,12.25,47.59359,-54.27349
2023-02-22 04:44:00+00:00,58.0,2.44,60.0,2.86,12.25,47.59359,-54.27349
2023-02-22 04:54:00+00:00,333.0,1.1,341.0,1.32,12.25,47.59359,-54.27349
2023-02-22 05:04:00+00:00,18.0,3.33,37.0,3.87,12.25,47.59359,-54.27349
2023-02-22 05:14:00+00:00,354.0,3.31,352.0,3.65,12.17,47.59359,-54.27349
2023-02-22 05:24:00+00:00,4.0,2.88,3.0,3.17,12.17,47.59359,-54.27349
2023-02-22 05:34:00+00:00,354.0,2.7,316.0,3.76,12.17,47.59359,-54.27349
2023-02-22 05:44:00+00:00,330.0,4.12,326.0,4.52,12.17,47.59359,-54.27349
2023-02-22 05:54:00+00:00,331.0,4.61,329.0,5.12,12.17,47.59359,-54.27349
2023-02-22 06:04:00+00:00,335.0,5.19,334.0,5.7,12.17,47.59359,-54.27349
2023-02-22 06:14:00+00:00,6.0,5.12,25.0,5.75,12.17,47.59359,-54.27349
2023-02-22 06:24:00+00:00,26.0,5.76,30.0,6.6,12.17,47.59359,-54.27349
2023-02-22 06:34:00+00:00,36.0,6.48,43.0,7.31,12.17,47.59359,-54.27349
2023-02-22 06:44:00+00:00,38.0,6.57,54.0,8.68,12.17,47.59359,-54.27349
2023-02-22 06:54:00+00:00,49.0,8.77,57.0,11.04,12.17,47.59359,-54.27349
2023-02-22 07:04:00+00:00,49.0,10.07,54.0,12.45,12.17,47.59359,-54.27349
2023-02-22 07:14:00+00:00,51.0,10.8,52.0,12.35,12.09,47.59359,-54.27349
2023-02-22 07:24:00+00:00,47.0,11.45,46.0,13.4,12.09,47.59359,-54.27349
2023-02-22 07:34:00+00:00,50.0,11.4,50.0,12.57,12.09,47.59359,-54.27349
2023-02-22 07:44:00+00:00,53.0,11.67,50.0,12.52,12.09,47.59359,-54.27349
2023-02-22 07:54:00+00:00,48.0,11.2,48.0,12.74,12.09,47.59359,-54.27349
2023-02-22 08:04:00+00:00,42.0,11.77,41.0,13.03,12.09,47.59359,-54.27349
2023-02-22 08:14:00+00:00,36.0,12.13,38.0,12.99,12.09,47.59359,-54.27349
2023-02-22 08:24:00+00:00,36.0,12.3,40.0,13.06,12.09,47.59359,-54.27349
2023-02-22 08:34:00+00:00,41.0,11.13,45.0,13.06,12.09,47.59359,-54.27349
2023-02-22 08:44:00+00:00,43.0,10.78,47.0,11.73,12.09,47.59359,-54.27349
2023-02-22 08:54:00+00:00,40.0,11.1,49.0,11.92,12.09,47.59359,-54.27349
2023-02-22 09:04:00+00:00,39.0,10.96,36.0,11.87,12.09,47.59359,-54.27349
2023-02-22 09:14:00+00:00,46.0,10.38,44.0,11.73,12.09,47.59359,-54.27349
2023-02-22 09:24:00+00:00,43.0,11.11,47.0,12.06,12.09,47.59359,-54.27349
2023-02-22 09:34:00+00:00,45.0,10.5,47.0,11.77,12.09,47.59359,-54.27349
2023-02-22 09:44:00+00:00,43.0,10.87,36.0,12.64,12.09,47.59359,-54.27349
2023-02-22 09:54:00+00:00,35.0,12.08,34.0,13.21,12.09,47.59359,-54.27349
2023-02-22 10:04:00+00:00,37.0,11.21,35.0,12.72,12.09,47.59359,-54.27349
2023-02-22 10:14:00+00:00,37.0,12.86,41.0,13.83,12.09,47.59359,-54.27349
2023-02-22 10:24:00+00:00,41.0,12.1,42.0,13.98,12.09,47.59359,-54.27349
2023-02-22 10:34:00+00:00,43.0,12.86,43.0,14.3,12.09,47.59359,-54.27349
2023-02-22 10:44:00+00:00,42.0,13.35,40.0,15.48,12.09,47.59359,-54.27349
2023-02-22 10:54:00+00:00,40.0,13.8,42.0,15.4,12.09,47.59359,-54.27349
2023-02-22 11:04:00+00:00,39.0,12.27,40.0,14.16,12.09,47.59359,-54.27349
2023-02-22 11:14:00+00:00,40.0,12.76,41.0,14.58,12.09,47.59359,-54.27349
2023-02-22 11:24:00+00:00,35.0,13.78,36.0,15.48,12.09,47.59359,-54.27349
2023-02-22 11:34:00+00:00,37.0,13.58,39.0,15.46,12.09,47.59359,-54.27349
2023-02-22 11:44:00+00:00,33.0,13.21,35.0,15.8,12.09,47.59359,-54.27349
2023-02-22 11:54:00+00:00,34.0,12.54,36.0,14.59,12.09,47.59359,-54.27349
2023-02-22 12:04:00+00:00,32.0,12.48,38.0,14.67,12.09,47.59359,-54.27349
2023-02-22 12:14:00+00:00,34.0,13.02,35.0,14.64,12.09,47.59359,-54.27349
2023-02-22 12:24:00+00:00,33.0,12.15,37.0,14.88,12.09,47.59359,-54.27349
2023-02-22 12:34:00+00:00,40.0,14.27,37.0,16.35,12.09,47.59359,-54.27349
2023-02-22 12:44:00+00:00,36.0,13.75,36.0,16.38,12.09,47.59359,-54.27349
2023-02-22 12:54:00+00:00,32.0,12.67,34.0,14.44,12.09,47.59359,-54.27349
2023-02-22 13:04:00+00:00,38.0,11.71,40.0,14.46,12.09,47.59359,-54.27349
2023-02-22 13:14:01+00:00,29.0,11.89,33.0,13.28,12.09,47.59359,-54.27349
2023-02-22 13:24:01+00:00,36.0,12.42,36.0,13.83,12.09,47.59359,-54.27349
2023-02-22 13:34:01+00:00,27.0,11.58,24.0,12.79,12.09,47.59359,-54.27349
2023-02-22 13:44:01+00:00,33.0,12.36,36.0,13.61,12.09,47.59359,-54.27349
2023-02-22 13:54:01+00:00,28.0,11.12,26.0,12.85,12.09,47.59359,-54.27349
2023-02-22 14:04:01+00:00,31.0,11.72,38.0,13.48,12.09,47.59359,-54.27349
2023-02-22 14:14:00+00:00,26.0,10.62,30.0,11.92,12.09,47.59359,-54.27349
2023-02-22 14:24:00+00:00,27.0,11.5,33.0,12.97,12.09,47.59359,-54.27349
2023-02-22 14:34:00+00:00,34.0,12.05,36.0,13.91,12.09,47.59359,-54.27349
2023-02-22 14:44:00+00:00,22.0,10.52,21.0,12.33,12.09,47.59359,-54.27349
2023-02-22 14:54:00+00:00,23.0,10.74,20.0,11.95,12.09,47.59359,-54.27349
2023-02-22 15:04:00+00:00,24.0,11.74,20.0,13.1,12.09,47.59359,-54.27349
2023-02-22 15:14:00+00:00,31.0,12.46,37.0,14.39,12.25,47.59359,-54.27349
2023-02-22 15:24:00+00:00,19.0,11.29,18.0,13.8,12.25,47.59359,-54.27349
2023-02-22 15:34:00+00:00,19.0,10.91,20.0,12.75,12.25,47.59359,-54.27349
2023-02-22 15:44:00+00:00,22.0,12.43,26.0,14.78,12.25,47.59359,-54.27349
2023-02-22 15:54:00+00:00,13.0,11.65,15.0,13.8,12.25,47.59359,-54.27349
2023-02-22 16:04:00+00:00,14.0,13.49,14.0,15.51,12.25,47.59359,-54.27349
2023-02-22 16:14:00+00:00,17.0,12.42,16.0,13.98,12.65,47.59359,-54.27349
2023-02-22 16:24:00+00:00,16.0,13.87,16.0,15.75,12.65,47.59359,-54.27349
2023-02-22 16:34:00+00:00,14.0,11.7,19.0,14.13,12.65,47.59359,-54.27349
2023-02-22 16:44:00+00:00,18.0,12.05,18.0,13.58,12.65,47.59359,-54.27349
2023-02-22 16:54:00+00:00,13.0,10.47,19.0,12.06,12.65,47.59359,-54.27349
2023-02-22 17:04:00+00:00,14.0,12.36,14.0,15.01,12.65,47.59359,-54.27349
2023-02-22 17:14:00+00:00,14.0,13.19,18.0,15.16,13.53,47.59359,-54.27349
2023-02-22 17:24:00+00:00,16.0,12.96,22.0,14.51,13.53,47.59359,-54.27349
2023-02-22 17:34:00+00:00,15.0,10.94,18.0,13.14,13.53,47.59359,-54.27349
2023-02-22 17:44:00+00:00,14.0,13.11,15.0,14.96,13.53,47.59359,-54.27349
2023-02-22 17:54:00+00:00,6.0,10.74,0.0,13.02,13.53,47.59359,-54.27349
2023-02-22 18:04:00+00:00,10.0,14.25,19.0,17.0,13.53,47.59359,-54.27349
2023-02-22 18:14:01+00:00,15.0,12.66,12.0,15.22,13.29,47.59359,-54.27349
2023-02-22 18:24:01+00:00,16.0,14.62,11.0,17.24,13.29,47.59359,-54.27349
2023-02-22 18:34:01+00:00,17.0,11.37,22.0,13.87,13.29,47.59359,-54.27349
2023-02-22 18:44:01+00:00,9.0,14.89,17.0,18.49,13.29,47.59359,-54.27349
2023-02-22 18:54:01+00:00,3.0,9.46,1.0,10.93,13.29,47.59359,-54.27349
2023-02-22 19:04:01+00:00,21.0,12.47,21.0,14.59,13.29,47.59359,-54.27349
2023-02-22 19:14:00+00:00,3.0,10.02,14.0,11.94,13.29,47.59359,-54.27349
2023-02-22 19:24:00+00:00,10.0,9.37,21.0,11.47,13.29,47.59359,-54.27349
2023-02-22 19:34:00+00:00,8.0,9.38,6.0,11.17,13.29,47.59359,-54.27349
2023-02-22 19:44:00+00:00,2.0,10.19,2.0,11.89,13.29,47.59359,-54.27349
2023-02-22 19:54:00+00:00,359.0,9.77,352.0,11.09,13.29,47.59359,-54.27349
2023-02-22 20:04:00+00:00,12.0,9.2,28.0,11.54,13.29,47.59359,-54.27349
2023-02-22 20:14:00+00:00,14.0,9.25,2.0,11.06,12.97,47.59359,-54.27349
2023-02-22 20:24:00+00:00,11.0,9.6,30.0,11.25,12.97,47.59359,-54.27349
2023-02-22 20:34:00+00:00,353.0,10.74,340.0,12.05,12.97,47.59359,-54.27349
2023-02-22 20:44:00+00:00,354.0,11.01,341.0,12.13,12.97,47.59359,-54.27349
2023-02-22 20:54:00+00:00,337.0,9.72,327.0,10.82,12.97,47.59359,-54.27349
2023-02-22 21:04:00+00:00,329.0,9.92,338.0,11.14,12.97,47.59359,-54.27349
2023-02-22 21:14:00+00:00,329.0,7.48,323.0,9.2,12.65,47.59359,-54.27349
2023-02-22 21:24:00+00:00,331.0,9.3,326.0,10.55,12.65,47.59359,-54.27349
2023-02-22 21:34:00+00:00,333.0,9.62,327.0,11.01,12.65,47.59359,-54.27349
2023-02-22 21:44:00+00:00,336.0,10.83,342.0,13.7,12.65,47.59359,-54.27349
2023-02-22 21:54:00+00:00,339.0,10.91,348.0,12.66,12.65,47.59359,-54.27349
2023-02-22 22:04:00+00:00,333.0,9.07,328.0,11.49,12.65,47.59359,-54.27349
2023-02-22 22:14:00+00:00,326.0,10.58,310.0,13.82,12.33,47.59359,-54.27349
2023-02-22 22:24:00+00:00,334.0,8.82,326.0,11.1,12.33,47.59359,-54.27349
2023-02-22 22:34:00+00:00,327.0,9.63,323.0,10.67,12.33,47.59359,-54.27349
2023-02-22 22:44:00+00:00,325.0,9.8,317.0,12.05,12.33,47.59359,-54.27349
2023-02-22 22:54:00+00:00,330.0,8.18,327.0,10.39,12.33,47.59359,-54.27349
2023-02-22 23:04:00+00:00,333.0,8.62,318.0,11.87,12.33,47.59359,-54.27349
2023-02-22 23:14:00+00:00,326.0,12.96,328.0,14.75,12.33,47.59359,-54.27349
2023-02-22 23:24:00+00:00,342.0,13.11,342.0,15.55,12.33,47.59359,-54.27349
2023-02-22 23:34:00+00:00,329.0,9.2,328.0,11.18,12.33,47.59359,-54.27349
2023-02-22 23:44:00+00:00,339.0,10.26,338.0,12.92,12.33,47.59359,-54.27349
2023-02-22 23:54:00+00:00,333.0,9.66,323.0,11.54,12.33,47.59359,-54.27349
